Location: El Bakhil
(32.7726°N, 5.5387°W)
Time: 01:43:28
(UTC+00:00)

Hubble Space Telescope - Visible Passes

Search period start: 02 December 2021 00:00
Search period end: 12 December 2021 00:00
Orbit: 534 x 538 km, 28.5° (Epoch: 01 December)

Date Brightness Start Highest point End Pass type
(mag) Time Alt. Az. Time Alt. Az. Time Alt. Az.
02 Dec 1.8 05:29:02 31° SW 05:29:47 34° SSW 05:33:32 10° SE visible
03 Dec 2.0 05:18:33 30° SSW 05:18:35 30° SSW 05:22:13 10° SE visible
04 Dec 2.4 05:08:06 25° S 05:08:06 25° S 05:10:50 10° SE visible
05 Dec 2.9 04:57:39 18° SSE 04:57:39 18° SSE 04:59:24 10° SE visible
06 Dec 3.5 04:47:14 13° SSE 04:47:14 13° SSE 04:47:51 10° SSE visible
